Location: Newark
(45.2862°N, 9.8850°E)
Time: 07:19:11
(UTC+00:00)

N. Korean satellite - Pass Details

Date: 16 December 2019
Orbit: 454 x 507 km, 97.2° (Epoch: 27 January)

Event Time Altitude Azimuth Distance (km) Brightness Sun altitude
Rises 04:01:38 0° 35° (NE) 2,519 10.6 -29.1°
Reaches altitude 10° 04:05:34 10° 80° (E) 1,619 10.1 -28.4°
Maximum altitude 04:06:04 10° 89° (E) 1,601 10.1 -28.3°
Drops below altitude 10° 04:06:35 10° 97° (E) 1,613 10.2 -28.2°
Sets 04:10:26 0° 143° (SE) 2,468 10.7 -27.6°
